Flag for United Kingdom Weather past 2 weeks in Swansea, Wales, United Kingdom

Now
51 °F

Cool.


Feels Like: 43 °F
Forecast: N/A
Wind: 32 mph from Southwest

Location: Mumbles

Current Time: Dec 21, 2014 at 4:07:37 PM

Latest Report: Dec 21, 2014 at 3:00 PM


Visibility: N/A

Pressure: 30.26 "Hg

Humidity: 94%

Dew point: 49 °F

Location of SwanseaLocation

Historic Weather in Swansea — Graph

°F

Swansea temperature yesterday

Maximum temperature yesterday: 49 °F (at 2:00 PM)
Minimum temperature yesterday: 46 °F (at 12:00 AM)
Average temperature yesterday: 47 °F

Past Weeks' High & Low Weather Summary

 TemperatureHumidityPressure
High54 °F (Dec 17, 11:00 AM)99% (Dec 18, 4:00 PM)30.49 "Hg (Dec 18, 4:00 PM)
Low37 °F (Dec 13, 5:00 AM)54% (Dec 10, 12:00 PM)29.26 "Hg (Dec 12, 4:00 AM)
Average47 °F82%30.01 "Hg
* Reported Dec 6 2:00 PM — Dec 21 2:00 PM, Swansea, Weather by CustomWeather, © 2014

Note: Actual official high and low records may vary slightly from our data, if they occured in-between our weather recording intervals... More about our weather records

Advertising

Swansea weather history for previous 24 hours

 ConditionsComfort  
Time TempWeatherWind HumidityBarometerVisibility
2:00 PM
Dec 21
50 °FCool.33 mph96%30.28 "HgN/A
1:00 PM50 °FCool.30 mph96%30.31 "HgN/A
12:00 PM49 °FCool.28 mph95%30.34 "HgN/A
11:00 AM49 °FCool.29 mph94%30.35 "HgN/A
10:00 AM48 °FCool.32 mph93%30.36 "HgN/A
9:00 AM49 °FCool.30 mph87%30.37 "HgN/A
8:00 AM48 °FCool.29 mph90%30.36 "HgN/A
7:00 AM48 °FCool.26 mph85%30.38 "HgN/A
6:00 AM49 °FCool.29 mph85%30.39 "HgN/A
5:00 AM48 °FCool.29 mph90%30.40 "HgN/A
4:00 AM47 °FCool.23 mph90%30.44 "HgN/A
3:00 AM47 °FCool.24 mph87%30.44 "HgN/A
2:00 AM47 °FCool.24 mph90%30.44 "HgN/A
1:00 AM47 °FCool.17 mph89%30.47 "HgN/A
12:00 AM47 °FCool.14 mph93%30.49 "HgN/A
11:00 PM
Dec 20
46 °FCool.10 mph93%30.49 "HgN/A
10:00 PM48 °FCool.12 mph80%30.48 "HgN/A
8:00 PM48 °FCool.5 mph76%30.49 "HgN/A
7:00 PM48 °FCool.7 mph78%30.49 "HgN/A
6:00 PM48 °FCool.7 mph78%30.49 "HgN/A
5:00 PM48 °FCool.8 mph76%30.48 "HgN/A
4:00 PM48 °FCool.9 mph76%30.47 "HgN/A
Weather by CustomWeather, © 2014

See weather overviewHow to use our weather pages